OpenBCM V1.13 (Linux)

Packet Radio Mailbox

DB0FHN

[JN59NK Nuernberg]

 Login: GUEST





  
LU9DCE > KEP      13.04.19 20:34l 253 Lines 12429 Bytes #999 (0) @ WW
BID : 21350_LU9DCE
Read: DF7EAV DK3UZ GUEST
Subj: TLE 13 04
Path: DB0FHN<DB0BLO<DB0ERF<DB0RES<IR2UBX<IZ3LSV<IW0QNL<JH4XSY<N3HYM<LU9DCE
Sent: 190413/1800Z 21350@LU9DCE.TOR.BA.ARG.SOAM LinBPQ6.0.18

            __    _  _  ___  ____   ___  ____    ____  ____  ____
           (  )  / )( \/ _ \(    \ / __)(  __)  (  _ \(  _ \/ ___)
           / (_/\) \/ (\__  )) D (( (__  ) _)    ) _ ( ) _ (\___ \
           \____/\____/(___/(____/ \___)(____)  (____/(____/(____/
               ESTACION DE PACKET RADIO - BUENOS AIRES (GF05OM)
                   BOLETINES INFORMATIVOS PROGRAMADOS (BIP)
                  SOPORTE TECNICO - HELLOCODELINUX@GMAIL.COM

+----------------------------------------------------------------------------+
OSCAR 7
1  7530U 74089B   19102.91166611 -.00000024  00000-0  13211-3 0  9995
2  7530 101.7372  71.2764 0012476 114.9601 308.2286 12.53637528 32159
OSCAR 11 (UoSAT 2)
1 14781U 84021B   19103.04120886  .00000092  00000-0  17430-4 0  9999
2 14781  97.6176 130.8887 0008750 168.6639 191.4774 14.83075842888888
OSCAR 19 (LUSAT)
1 20442U 90005G   19102.84445574 +.00000008 +00000-0 +19110-4 0  9994
2 20442 098.6430 044.9776 0011639 352.3590 007.7414 14.32921799526742
EYESAT A
1 22825U 93061C   19103.52123208  .00000015  00000-0  23685-4 0  9999
2 22825  98.8999  90.6614 0008231 184.3895 175.7216 14.30055525332491
ITAMSAT
1 22826U 93061D   19102.90875529 +.00000010 +00000-0 +21661-4 0  9998
2 22826 098.8938 090.0351 0008946 175.4578 184.6687 14.30388651332354
RADIO ROSTO
1 23439U 94085A   19102.90955015 -.00000056 +00000-0 -38581-3 0  9995
2 23439 064.8160 224.1185 0147682 126.1150 235.3547 11.27567995000365
JAS 2
1 24278U 96046B   19103.44472709  .00000002  00000-0  36398-4 0  9994
2 24278  98.5274 265.8732 0351113  51.9539 311.2741 13.53090134118849
TECHSAT 1B
1 25397U 98043D   19102.85255029 -.00000003  00000-0  17743-4 0  9999
2 25397  98.6834  43.8269 0000746 169.9484 190.1709 14.23663314 78360
ISS (ZARYA)
1 25544U 98067A   19103.53920778  .00005061  00000-0  88408-4 0  9999
2 25544  51.6435 322.5773 0001840 177.2517 266.7461 15.52550346165211
PCSAT
1 26931U 01043C   19102.66248392 -.00000040  00000-0  16437-4 0  9992
2 26931  67.0512 176.6480 0005822 277.8166  82.2274 14.30537955915383
SAUDISAT 1C
1 27607U 02058C   19103.19480247  .00000052  00000-0  28016-4 0  9994
2 27607  64.5543 252.8985 0082406 269.1822  89.9838 14.75534997877225
CUTE-1
1 27844U 03031E   19102.95684325 +.00000062 +00000-0 +47743-4 0  9994
2 27844 098.6864 112.1618 0009062 218.7403 141.3126 14.22169600818769
CUBESAT XI 4
1 27848U 03031J   19103.00037986  .00000045  00000-0  40341-4 0  9998
2 27848  98.6942 112.6896 0008787 230.8723 129.1674 14.21765886818664
MOZHAYETS 4
1 27939U 03042A   19103.53593484  .00000160  00000-0  37348-4 0  9990
2 27939  98.0292 240.6847 0011253 276.1884  83.8041 14.66768692830843
CUBESAT XI 5
1 28895U 05043F   19102.92291110 +.00000179 +00000-0 +43242-4 0  9998
2 28895 097.9480 247.9829 0016458 197.9163 162.1462 14.63647780717487
CUTE-1.7+APD II
1 32785U 08021C   19103.19249300  .00000313  00000-0  39410-4 0  9996
2 32785  97.5498 106.0459 0014485 120.1407 240.1248 14.88277741593794
DELFI C3
1 32789U 08021G   19103.14726876  .00002021  00000-0  13966-3 0  9998
2 32789  97.4721 154.8007 0011899   1.2634 358.8621 15.06793832596940
SEEDS
1 32791U 08021J   19103.52389644  .00000397  00000-0  45683-4 0  9997
2 32791  97.5298 112.2608 0015019  97.7717 262.5207 14.90773853594254
YUBELEINY
1 32953U 08025A   19103.56717579  .00000020  00000-0  75656-4 0  9993
2 32953  82.5063 185.8809 0017840 273.0583  86.8459 12.43088706494090
PRISM (HITOMI)
1 33493U 09002B   19103.53941269  .00000494  00000-0  48895-4 0  9991
2 33493  98.1229  21.9877 0016480  45.6877 314.5691 14.96581360555259
KKS-1 (KISEKI)
1 33499U 09002H   19102.94250152 +.00000132 +00000-0 +27543-4 0  9991
2 33499 098.3544 299.5036 0010350 062.9300 297.2963 14.75422425548951
SWISSCUBE
1 35932U 09051B   19103.15572013  .00000164  00000-0  48206-4 0  9990
2 35932  98.5804 267.2066 0007803  19.0814 341.0674 14.56262462507092
BEESAT
1 35933U 09051C   19103.43764776  .00000146  00000-0  43888-4 0  9992
2 35933  98.5837 269.2218 0006300  33.1816 326.9774 14.56354620507248
ITUPSAT 1
1 35935U 09051E   19103.18221542  .00000113  00000-0  37132-4 0  9994
2 35935  98.5947 269.2013 0008537  27.7181 332.4469 14.55517372506968
XIWANG-1 (HOPE-1)
1 36122U 09072B   19103.15563790 -.00000041  00000-0  40681-5 0  9992
2 36122 100.0734 108.6638 0007662 131.9824 228.1944 13.16349052448125
TISAT 1
1 36799U 10035E   19103.44809793  .00000479  00000-0  54541-4 0  9994
2 36799  98.1457 253.4415 0011102 306.7961  53.2237 14.91051339474891
JUGNU
1 37839U 11058B   19103.14125572  .00000317  00000-0  27187-4 0  9996
2 37839  19.9625  18.3437 0018812 313.4982 188.8048 14.12646999387837
SRMSAT
1 37841U 11058D   19103.30811751  .00000293  00000-0  15910-4 0  9992
2 37841  19.9721  72.7310 0011878 186.5135 321.1871 14.10628593387301
M-CUBED/EXP-1 PRIME
1 37855U 11061F   19102.86669712 +.00001293 +00000-0 +72869-4 0  9996
2 37855 101.7244 324.1361 0173892 274.8937 083.2441 15.05261377406255
HORYU 2
1 38340U 12025D   19102.92335289 +.00000210 +00000-0 +38738-4 0  9998
2 38340 098.3368 139.4836 0010928 343.5151 016.5701 14.75690848360903
STRAND 1
1 39090U 13009E   19103.54978805  .00000021  00000-0  22645-4 0  9990
2 39090  98.4954 310.5928 0010151 121.5888 238.6289 14.35077816320905
SOMP
1 39134U 13015E   19102.71369345 +.00002135 +00000-0 +10740-3 0  9997
2 39134 064.8640 237.4022 0024716 315.7832 044.1320 15.19979375330038
BEESAT 3
1 39135U 13015F   19102.78116767 +.00001449 +00000-0 +82060-4 0  9995
2 39135 064.8661 254.5596 0011584 314.6510 045.3671 15.17316639329708
BEESAT 2
1 39136U 13015G   19103.51867600  .00001460  00000-0  83848-4 0  9995
2 39136  64.8679 255.7991 0012685 308.3154  51.6830 15.16761022330132
CUBEBUG 1
1 39153U 13018D   19103.26114863  .00000243  00000-0  38663-4 0  9998
2 39153  97.9743 201.7772 0018068  56.9884 303.3061 14.80538987321994
ZACUBE
1 39417U 13066B   19103.49708222  .00000252  00000-0  38188-4 0  9999
2 39417  97.5668 120.7057 0057497 250.4939 109.0059 14.81082761291243
TRITON 1
1 39427U 13066M   19103.53573691  .00000340  00000-0  62032-4 0  9998
2 39427  97.6709  85.0230 0114410  18.0705 342.4516 14.67808438288636
GOMX 1
1 39430U 13066Q   19103.45292036  .00000251  00000-0  53846-4 0  9998
2 39430  97.7399  64.3985 0152660 102.8562 258.9734 14.59219443286943
HUMSAT D
1 39433U 13066T   19103.42707354  .00000688  00000-0  72376-4 0  9995
2 39433  97.5617 153.6138 0031507 159.2383 201.0124 14.92131272293199
CUBEBUG 2
1 39440U 13066AA  19102.96832015 +.00000274 +00000-0 +45254-4 0  9990
2 39440 097.6022 105.3472 0078954 302.3613 056.9972 14.75821848288937
FUNCUBE 1
1 39444U 13066AE  19103.06138168  .00000285  00000-0  41541-4 0  9991
2 39444  97.5653 122.1728 0056660 245.9464 113.5815 14.81894069290062
UWE-3
1 39446U 13066AG  19102.95135913  .00000249  00000-0  39801-4 0  9991
2 39446  97.5833 112.2686 0068480 278.0318  81.3127 14.78355965289402
SPROUT
1 39770U 14029E   19103.36334035  .00000796  00000-0  94414-4 0  9991
2 39770  97.8794 207.1162 0007772 309.5890  50.4634 14.87252189264975
UNISAT 6
1 40012U 14033C   19102.60463936  .00000187  00000-0  35412-4 0  9993
2 40012  97.7676 332.0674 0057397 315.4257  44.2343 14.73948800258801
DUCHIFAT 1
1 40021U 14033M   19103.42265570  .00000496  00000-0  56593-4 0  9994
2 40021  97.9229  27.8048 0011430 269.4926  90.4982 14.90573284261670
QB50P1
1 40025U 14033R   19102.76508419  .00000352  00000-0  43505-4 0  9996
2 40025  97.9064  22.5573 0011003 281.7860  78.2122 14.88901616261363
CHUBUSAT 1
1 40300U 14070C   19103.18674931  .00001027  00000-0  47873-4 0  9995
2 40300  97.3324 179.0413 0018280 292.6208 119.6105 15.21991036245900
NUDT-PHONESAT
1 40900U 15049B   19103.40309410  .00003414  00000-0  14997-3 0  9992
2 40900  97.4401 113.3973 0014784  62.1647  44.1770 15.22507959197574
ZDPS 2A
1 40901U 15049C   19103.35240924  .00001462  00000-0  75888-4 0  9999
2 40901  97.4615 110.1387 0015466  75.3873  37.3799 15.17605581197176
ZDPS 2B
1 40902U 15049D   19103.36832214  .00001079  00000-0  57271-4 0  9990
2 40902  97.4554 107.7443 0015507  73.0999  37.4913 15.17376556197158
XW-2A
1 40903U 15049E   19103.58166925  .00003003  00000-0  73235-4 0  9991
2 40903  97.3459 145.9519 0014694  32.4758  92.6339 15.41592306200068
KAITUO 1A
1 40904U 15049F   19103.44721135  .00000433  00000-0  26444-4 0  9991
2 40904  97.4674 106.5949 0016521  78.8171  80.3965 15.15296766196967
OBJECT G
1 40905U 15049G   19103.41030822  .00000864  00000-0  50719-4 0  9995
2 40905  97.4705 104.1936 0017611  73.0526  62.0730 15.14232981196847
XW-2C
1 40906U 15049H   19103.38551620  .00001022  00000-0  57156-4 0  9995
2 40906  97.4679 106.5693 0016757  72.0535  34.2466 15.15583611196952
XW-2D
1 40907U 15049J   19103.51232198  .00000846  00000-0  47726-4 0  9992
2 40907  97.4661 106.3713 0016062  69.0731  86.8838 15.15762563196982
LILACSAT 2
1 40908U 15049K   19103.43408520  .00000365  00000-0  23784-4 0  9992
2 40908  97.4790 105.2475 0017957  73.0293  63.9796 15.13744608196786
XW-2F
1 40910U 15049M   19103.39492840  .00001789  00000-0  93273-4 0  9999
2 40910  97.4638 108.1133 0016611  63.2817  44.3388 15.17151188196961
XW-2B
1 40911U 15049N   19103.40158486  .00001286  00000-0  70831-4 0  9994
2 40911  97.4682 106.8941 0015964  70.2286  40.1076 15.15698427196868
KAITUO 1B
1 40912U 15049P   19103.39418486  .00001928  00000-0  93945-4 0  9996
2 40912  97.4523 111.6121 0016418  49.1721  56.4041 15.19443763197241
TIANWANG 1C (TW-1C)
1 40926U 15051B   19103.44058485  .00016540  00000-0  25421-3 0  9998
2 40926  97.1443 149.7377 0006546 249.6392 235.8368 15.54297051199862
